Gallup, NM

8:20 PM MDT on September 25, 2017 (GMT -0600)
Gallup Municipal

Weather History for KGUP - December, 2012

Change the Weather History Date:

Friday, December 7, 2012

  Actual Average Record
Temperature  
Mean Temperature 36 °F -  
Max Temperature 55 °F 44 °F 63 °F (1981)
Min Temperature 18 °F 14 °F -11 °F (1992)
Degree Days  
Heating Degree Days 28    
Moisture  
Dew Point 19 °F    
Average Humidity 58    
Maximum Humidity 81    
Minimum Humidity 26    
Precipitation  
Precipitation 0.00 in - - ()
Sea Level Pressure  
Sea Level Pressure 29.99 in    
Wind  
Wind Speed 3 mph (West)    
Max Wind Speed 15 mph    
Max Gust Speed 20 mph    
Visibility 10 miles    
Events      
Averages and records for this station are not official NWS values.
T = Trace of Precipitation, MM = Missing Value Source: NWS Daily Summary

Daily Weather History Graph

Daily Weather History Graph

Search for Another Location

Airport or City:

Trip Planner

Search our weather history database for the weather conditions in past years. The results will help you decide how hot, cold, wet, or windy it might be!

Date:

Astronomy

Dec. 07, 2012 Rise Set
Actual Time 7:11 AM MST 5:02 PM MST
Civil Twilight 6:43 AM MST 5:30 PM MST
Nautical Twilight 6:11 AM MST 6:01 PM MST
Astronomical Twilight 5:40 AM MST 6:32 PM MST
Moon 12:45 AM MST (12/7) 12:50 PM MST (12/7)
Length of Visible Light 10h 46m
Length of Day
9h 50m
Last Quarter, 38% of the Moon is Illuminated
Dec 7
Last Quarter
Dec 13
New
Dec 19
First Quarter
Dec 28
Full
Jan 4
Last Quarter

Hourly Weather History & Observations

Time (MST) Temp. Windchill Dew Point Humidity Pressure Visibility Wind Dir Wind Speed Gust Speed Precip Events Conditions
12:53 AM 24.1 °F - 15.1 °F 69% 29.92 in 10.0 mi Calm Calm - N/A   Clear
1:53 AM 23.0 °F - 15.1 °F 72% 29.92 in 10.0 mi Calm Calm - N/A   Clear
2:53 AM 19.9 °F 14.9 °F 14.0 °F 78% 29.96 in 10.0 mi East 3.5 mph - N/A   Clear
3:53 AM 21.9 °F 17.2 °F 14.0 °F 72% 29.94 in 10.0 mi NE 3.5 mph - N/A   Clear
4:53 AM 21.0 °F - 15.1 °F 78% 29.96 in 10.0 mi Calm Calm - N/A   Clear
5:53 AM 18.0 °F 11.1 °F 12.9 °F 81% 30.04 in 10.0 mi NE 4.6 mph - N/A   Scattered Clouds
6:53 AM 24.1 °F - 17.1 °F 75% 30.03 in 10.0 mi Calm Calm - N/A   Mostly Cloudy
7:53 AM 27.0 °F - 18.0 °F 69% 30.05 in 10.0 mi Calm Calm - N/A   Mostly Cloudy
8:53 AM 30.9 °F - 19.0 °F 61% 30.07 in 10.0 mi Calm Calm - N/A   Clear
9:53 AM 39.0 °F 35.7 °F 24.1 °F 55% 30.02 in 10.0 mi West 4.6 mph - N/A   Clear
10:53 AM 48.0 °F - 28.0 °F 46% 29.98 in 10.0 mi West 4.6 mph - N/A   Clear
11:53 AM 52.0 °F - 28.0 °F 40% 29.92 in 10.0 mi WSW 9.2 mph - N/A   Clear
12:53 PM 54.0 °F - 26.1 °F 34% 29.91 in 10.0 mi West 11.5 mph 17.3 mph N/A   Scattered Clouds
1:53 PM 55.0 °F - 25.0 °F 31% 29.88 in 10.0 mi WSW 10.4 mph 19.6 mph N/A   Partly Cloudy
2:53 PM 55.0 °F - 23.0 °F 29% 29.90 in 10.0 mi WSW 15.0 mph - N/A   Clear
3:53 PM 54.0 °F - 19.9 °F 26% 29.91 in 10.0 mi WSW 11.5 mph - N/A   Clear
4:53 PM 50.0 °F - 21.9 °F 33% 29.96 in 10.0 mi WSW 10.4 mph - N/A   Partly Cloudy
6:53 PM 39.0 °F - 21.0 °F 49% 30.04 in 10.0 mi Calm Calm - N/A   Clear
7:53 PM 28.9 °F - 15.1 °F 56% 30.11 in 10.0 mi Calm Calm - N/A   Clear
8:53 PM 27.0 °F - 15.1 °F 61% 30.11 in 10.0 mi Calm Calm - N/A   Clear
9:53 PM 24.1 °F - 15.1 °F 69% 30.06 in 10.0 mi Calm Calm - N/A   Clear
10:53 PM 19.0 °F 12.3 °F 12.0 °F 74% 30.04 in 10.0 mi East 4.6 mph - N/A   Clear
11:53 PM 23.0 °F 17.0 °F 15.1 °F 72% 29.98 in 10.0 mi NE 4.6 mph - N/A   Clear